[[{"header":{"parameterUnit":"m.s-1","parameterCategory":1,"la1":30.2991,"la2":30.254,"lo1":-89.0895,"lo2":-89.0444,"dy":0.0017,"dx":0.0017,"nx":28,"ny":28,"refTime":"2024-12-06T03:00:00:Z","depth":0,"parameterNumber":2,"parameterNumberName":"U-component_of_WINDS"},"data":[0,0,0,0,0,0,0,0,0,0,0,0,0,0,0,0,0,0,0,0,0,0,0,0,0,0,0,0,0,0,0,0,0,0,0,0,0,0,0,0,0,0,0,0,0,0,0,0,0,0,0,0,0,0,0,0,0,0,-3.6418,-3.6418,0,-3.6462,-3.6462,-3.6463,-3.637,-3.6367,-3.6364,-3.6361,-3.6404,-3.6408,-3.6412,0,0,0,0,0,0,0,0,0,0,0,0,0,-3.6251,-3.6255,-3.6418,-3.6418,-3.6419,-3.6462,-3.6462,-3.6463,-3.637,-3.6366,-3.6363,-3.6359,-3.6403,-3.6407,-3.6412,0,0,0,0,0,0,0,0,0,0,0,0,0,-3.6312,-3.6256,-3.6418,-3.6378,-3.6375,-3.6461,-3.6462,-3.6463,-3.6371,-3.6366,-3.6362,-3.6358,-3.6401,-3.6407,-3.6413,-3.654,0,0,-3.6431,-3.6434,0,0,0,0,0,0,0,0,-3.6309,-3.6318,-3.6383,-3.6381,-3.6377,-3.6405,-3.6419,-3.6489,-3.6372,-3.6372,-3.6361,-3.6355,-3.6408,-3.6413,-3.6431,-3.6542,-3.6544,-3.6432,-3.6435,-3.6438,-3.6439,0,0,0,0,0,0,0,-3.6305,-3.6316,-3.6435,-3.6384,-3.6381,-3.6357,-3.6361,-3.6432,-3.6415,-3.6372,-3.6365,-3.6372,-3.6406,-3.6426,-3.6432,-3.6544,-3.6431,-3.6437,-3.644,-3.6443,-3.676,-3.6764,0,0,0,0,0,0,-3.6306,-3.6313,-3.6434,-3.6436,-3.6331,-3.6364,-3.6368,-3.6401,-3.6414,-3.6412,-3.6376,-3.6367,-3.6418,-3.6425,-3.6433,-3.6581,-3.6438,-3.6443,-3.6447,-3.6755,-3.6761,-3.6766,0,0,0,0,0,0,-3.6303,-3.6318,-3.6432,-3.6373,-3.6386,-3.6371,-3.6409,-3.6404,-3.6424,-3.6417,-3.6413,-3.64,-3.6415,-3.6424,-3.6514,-3.6581,-3.6446,-3.6451,-3.6749,-3.6757,-3.6763,-3.688,0,0,0,0,0,0,-3.6298,-3.6317,-3.6366,-3.6375,-3.6389,-3.6513,-3.6414,-3.6408,-3.6435,-3.6425,-3.6438,-3.6436,-3.6412,-3.6505,-3.652,-3.6587,-3.6456,-3.6743,-3.6752,-3.6761,-3.687,-3.689,-3.6907,0,0,0,0,0,-3.6293,-3.6397,-3.6369,-3.6384,-3.645,-3.6517,-3.6525,-3.6496,-3.6441,-3.6489,-3.6484,-3.6436,-3.6572,-3.6515,-3.653,-3.6601,-3.6738,-3.675,-3.676,-3.6861,-3.6886,-3.6907,0,0,0,0,0,0,-3.6396,-3.6397,-3.6366,-3.6476,-3.6498,-3.6501,-3.6561,-3.6523,-3.656,-3.6548,-3.651,-3.6514,-3.661,-3.6614,-3.6551,-3.6723,-3.6646,-3.666,-3.6717,-3.6741,-3.6759,-3.6756,-3.6461,0,0,0,0,0,-3.6431,-3.6487,-3.6485,-3.6582,-3.6594,-3.6576,-3.6605,-3.658,-3.66,-3.6608,-3.6609,-3.663,-3.6677,-3.6709,-3.6752,-3.687,-3.6871,-3.6926,-3.6945,-3.696,-3.6973,-3.7034,-3.7058,-3.6802,-3.6802,-3.6801,0,0,-3.6505,-3.6513,-3.655,-3.6603,-3.6616,-3.6673,-3.6584,-3.6649,-3.669,-3.6618,-3.6702,-3.6704,-3.6724,-3.6828,-3.6873,-3.6834,-3.7044,-3.6974,-3.6987,-3.6991,-3.7048,-3.7072,-3.7093,-3.6809,-3.6808,-3.6807,0,0,-3.6669,-3.6681,-3.6763,-3.6778,-3.6799,-3.6787,-3.6807,-3.6816,-3.6815,-3.6899,-3.6845,-3.6894,-3.6976,-3.6993,-3.7012,-3.7181,-3.7137,-3.7196,-3.7294,-3.7354,-3.7374,-3.7392,-3.7451,-3.7473,-3.7209,-3.7209,-3.721,0,-3.6758,-3.6843,-3.681,-3.6877,-3.6902,-3.6839,-3.6921,-3.6937,-3.6971,-3.6989,-3.6945,-3.7046,-3.7056,-3.7162,-3.7203,-3.7221,-3.7241,-3.7194,-3.7374,-3.7392,-3.7408,-3.7464,-3.7486,-3.7216,-3.7215,-3.7215,-3.7214,0,-3.695,-3.701,-3.7073,-3.7108,-3.7139,-3.7214,-3.7191,-3.7227,-3.7199,-3.7191,-3.7277,-3.7286,-3.7329,-3.7353,-3.7327,-3.7455,-3.743,-3.7381,-3.7301,-3.744,-3.7491,-3.7513,-3.7226,-3.7224,-3.7222,-3.722,0,0,-3.718,-3.7195,-3.7219,-3.7233,-3.7252,-3.7297,-3.7368,-3.7411,-3.7441,-3.7467,-3.7525,-3.7596,-3.7551,-3.7573,-3.7548,-3.7601,-3.7733,-3.7545,-3.7545,-3.7578,-3.7873,-3.7909,-3.7934,-3.7704,-3.7708,-3.7711,-3.7871,0,-3.7341,-3.7464,-3.7436,-3.7557,-3.761,-3.7551,-3.7613,-3.7631,-3.7625,-3.7669,-3.7662,-3.7712,-3.7649,-3.7662,-3.7712,-3.7706,-3.7791,-3.7694,-3.7756,-3.7759,-3.7752,-3.7961,-3.8,-3.815,-3.7891,-3.7894,-3.7897,0,-3.7545,-3.7579,-3.7705,-3.7714,-3.7736,-3.7792,-3.7828,-3.7871,-3.7889,-3.7881,-3.7906,-3.787,-3.794,-3.7861,-3.7955,-3.789,-3.7914,-3.7915,-3.792,-3.7924,-3.7836,-3.797,-3.8197,-3.8219,-3.7928,-3.7926,-3.7924,0,-3.7699,-3.7776,-3.7861,-3.7875,-3.7888,-3.7929,-3.7936,-3.795,-3.7977,-3.8008,-3.8025,-3.8065,-3.8086,-3.8117,-3.8092,-3.8037,-3.819,-3.811,-3.8185,-3.8185,-3.8219,-3.8217,-3.8452,-3.8236,-3.8236,-3.8236,-3.8235,0,-3.7881,-3.796,-3.7929,-3.7982,-3.8068,-3.8035,-3.8122,-3.8122,-3.8135,-3.8185,-3.8136,-3.8185,-3.815,-3.8196,-3.8177,-3.8257,-3.8268,-3.8262,-3.8256,-3.8266,-3.8267,-3.828,-3.8269,-3.8241,-3.824,-3.8239,-3.8238,0,-3.8067,-3.805,-3.8138,-3.8143,-3.8146,-3.821,-3.8213,-3.8261,-3.8251,-3.8316,-3.8329,-3.8314,-3.8365,-3.8344,-3.8397,-3.8385,-3.8487,-3.8468,-3.8481,-3.8476,-3.8551,-3.8544,-3.8803,-3.8835,-3.86,-3.8602,-3.8604,0,-3.8184,-3.8243,-3.8254,-3.8285,-3.8295,-3.8345,-3.8373,-3.8342,-3.8372,-3.8397,-3.8442,-3.8488,-3.8524,-3.8607,-3.86,-3.8641,-3.8621,-3.8709,-3.8627,-3.8635,-3.8621,-3.8618,-3.8623,-3.8725,-3.8728,-3.873,-3.8732,0,-3.8393,-3.8381,-3.8422,-3.8461,-3.8495,-3.8524,-3.8548,-3.8576,-3.8546,-3.8582,-3.8633,-3.8661,-3.8715,-3.8761,-3.8797,-3.8803,-3.8763,-3.8758,-3.8777,-3.8788,-3.8792,-3.879,-3.8525,-3.8752,-3.875,-3.8749,-3.8748,-3.8747,-3.8547,-3.8596,-3.8612,-3.8659,-3.8674,-3.8698,-3.8743,-3.8739,-3.8781,-3.8823,-3.8802,-3.8862,-3.8877,-3.8921,-3.8933,-3.8978,-3.8943,-3.8972,-3.8979,-3.8986,-3.8995,-3.8786,-3.8984,-3.8984,-3.8983,-3.8983,-3.8982,0,-3.8752,-3.8759,-3.8803,-3.8838,-3.8876,-3.8835,-3.8859,-3.8893,-3.8946,-3.8964,-3.9,-3.9058,-3.9102,-3.9099,-3.914,-3.9177,-3.9159,-3.9188,-3.9185,-3.9186,-3.9024,-3.9003,-3.9202,-3.9202,-3.9202,-3.9202,-3.9201,-3.9201,-3.8863,-3.8945,-3.8935,-3.9023,-3.9029,-3.9086,-3.9104,-3.9125,-3.9139,-3.9207,-3.9243,-3.9241,-3.925,-3.9291,-3.933,-3.9327,-3.9344,-3.938,-3.9371,-3.922,-3.9198,-3.9177,-3.9157,-3.9385,-3.9385,-3.9529,-3.9531,-3.9532]},{"header":{"parameterUnit":"m.s-1","parameterCategory":1,"la1":30.2991,"la2":30.254,"lo1":-89.0895,"lo2":-89.0444,"dy":0.0017,"dx":0.0017,"nx":28,"ny":28,"refTime":"2024-12-06T03:00:00:Z","depth":0,"parameterNumber":3,"parameterNumberName":"V-component_of_WINDS"},"data":[0,0,0,0,0,0,0,0,0,0,0,0,0,0,0,0,0,0,0,0,0,0,0,0,0,0,0,0,0,0,0,0,0,0,0,0,0,0,0,0,0,0,0,0,0,0,0,0,0,0,0,0,0,0,0,0,0,0,0.3308,0.3307,0,0.3234,0.3233,0.3232,0.3176,0.3175,0.3175,0.3174,0.3096,0.3095,0.3093,0,0,0,0,0,0,0,0,0,0,0,0,0,0.34,0.3398,0.3308,0.3307,0.3306,0.3234,0.3233,0.3232,0.3176,0.3175,0.3175,0.3174,0.3097,0.3095,0.3093,0,0,0,0,0,0,0,0,0,0,0,0,0,0.3346,0.3398,0.3308,0.3269,0.3265,0.3234,0.3233,0.3231,0.3176,0.3175,0.3175,0.3174,0.3098,0.3095,0.3093,0.3093,0,0,0.3085,0.3084,0,0,0,0,0,0,0,0,0.3349,0.3343,0.3276,0.3272,0.3267,0.3213,0.3236,0.3185,0.3176,0.321,0.3174,0.3174,0.3136,0.313,0.3118,0.3089,0.3086,0.3085,0.3084,0.3083,0.3082,0,0,0,0,0,0,0,0.3353,0.3346,0.3278,0.3275,0.327,0.3256,0.3247,0.3226,0.3178,0.3207,0.3203,0.3195,0.3133,0.312,0.3116,0.3085,0.3085,0.3083,0.3082,0.3081,0.3053,0.3054,0,0,0,0,0,0,0.3363,0.3349,0.3281,0.3276,0.3307,0.3255,0.3245,0.3231,0.3178,0.3169,0.3196,0.3193,0.3125,0.3118,0.3113,0.311,0.3083,0.308,0.3079,0.3053,0.3054,0.3054,0,0,0,0,0,0,0.3365,0.3357,0.3284,0.3311,0.3301,0.3254,0.3239,0.323,0.3217,0.3169,0.316,0.3191,0.3124,0.3116,0.3099,0.3106,0.3079,0.3077,0.3052,0.3053,0.3054,0.3104,0,0,0,0,0,0,0.3368,0.3359,0.3358,0.3312,0.33,0.3271,0.3239,0.3229,0.3214,0.3209,0.3163,0.3155,0.3123,0.3103,0.3096,0.3102,0.3075,0.3051,0.3052,0.3054,0.3101,0.3106,0.3111,0,0,0,0,0,0.3372,0.3375,0.3359,0.3351,0.3299,0.3272,0.3265,0.3229,0.3214,0.3214,0.3183,0.3156,0.3107,0.3101,0.3094,0.3099,0.305,0.3052,0.3054,0.3099,0.3105,0.3111,0,0,0,0,0,0,0.3422,0.3368,0.3349,0.3338,0.331,0.3263,0.326,0.3236,0.3212,0.3208,0.3164,0.3154,0.3141,0.3118,0.3113,0.3097,0.3075,0.3075,0.3112,0.3118,0.3123,0.3128,0.3073,0,0,0,0,0,0.3432,0.3416,0.3369,0.3363,0.335,0.3308,0.3295,0.327,0.3239,0.3226,0.3194,0.3165,0.3143,0.3129,0.3106,0.3098,0.3087,0.3098,0.3103,0.3107,0.3107,0.3102,0.3106,0.306,0.306,0.306,0,0,0.3452,0.342,0.3412,0.3372,0.3348,0.3331,0.3298,0.3282,0.3269,0.3224,0.3206,0.3181,0.3146,0.3133,0.3126,0.3114,0.3118,0.3109,0.3113,0.3111,0.3104,0.3109,0.3112,0.3061,0.3061,0.3061,0,0,0.348,0.3455,0.3447,0.3424,0.3388,0.336,0.3358,0.3315,0.3297,0.3279,0.3244,0.3228,0.3191,0.3167,0.315,0.3171,0.3145,0.3165,0.3189,0.3185,0.3188,0.3191,0.3199,0.3202,0.3165,0.3165,0.3165,0,0.3509,0.3484,0.3446,0.3432,0.3416,0.3375,0.3367,0.3346,0.3304,0.3293,0.3281,0.3234,0.3206,0.3188,0.3193,0.3181,0.3178,0.3169,0.3191,0.3193,0.3196,0.3202,0.3205,0.3168,0.3168,0.3167,0.3167,0,0.3521,0.3504,0.3503,0.3464,0.3447,0.3437,0.3397,0.3385,0.3362,0.3335,0.3317,0.3283,0.3253,0.3247,0.3223,0.3225,0.3219,0.3199,0.3176,0.3203,0.3209,0.3211,0.3172,0.3171,0.317,0.3169,0,0,0.3578,0.352,0.352,0.3503,0.346,0.3446,0.3434,0.3405,0.3395,0.3368,0.3356,0.3327,0.3308,0.3289,0.3263,0.3258,0.3277,0.3239,0.3237,0.3247,0.3278,0.3293,0.3296,0.3261,0.3261,0.3261,0.3281,0,0.3599,0.3575,0.3542,0.3529,0.3513,0.3475,0.3464,0.3437,0.3412,0.3394,0.3367,0.3346,0.3324,0.3312,0.3306,0.3276,0.3283,0.3275,0.3249,0.3248,0.3259,0.3299,0.3315,0.3335,0.3283,0.3283,0.3283,0,0.3621,0.3597,0.3583,0.3543,0.3535,0.3526,0.3497,0.3481,0.3449,0.3432,0.3411,0.3383,0.3368,0.3348,0.3326,0.3322,0.3309,0.3293,0.3293,0.3289,0.3267,0.3296,0.334,0.3343,0.3286,0.3286,0.3286,0,0.3664,0.3628,0.3615,0.3601,0.3554,0.3549,0.3529,0.3496,0.3482,0.3457,0.3447,0.342,0.3405,0.3385,0.3351,0.3339,0.3333,0.331,0.3318,0.3319,0.3317,0.3318,0.336,0.331,0.331,0.331,0.331,0,0.3691,0.3683,0.3633,0.3626,0.3616,0.3578,0.357,0.3547,0.3519,0.3505,0.3471,0.3459,0.3414,0.3397,0.3369,0.3356,0.3349,0.3334,0.3327,0.3337,0.3339,0.3328,0.3326,0.3311,0.3311,0.3311,0.331,0,0.3737,0.3703,0.3686,0.3644,0.3633,0.3628,0.3591,0.3582,0.3556,0.354,0.3534,0.3492,0.347,0.3434,0.3401,0.3383,0.3374,0.3362,0.3385,0.3381,0.339,0.339,0.3427,0.343,0.3379,0.3379,0.338,0,0.3756,0.375,0.3707,0.3696,0.3678,0.366,0.3645,0.3608,0.3594,0.3558,0.3553,0.3529,0.3507,0.3474,0.3441,0.3416,0.3402,0.3417,0.3398,0.3409,0.3402,0.3403,0.3402,0.3421,0.3422,0.3423,0.3423,0,0.3794,0.3778,0.3758,0.3733,0.3717,0.3695,0.3671,0.3664,0.3621,0.3607,0.3585,0.3568,0.3535,0.3511,0.3482,0.3461,0.3435,0.343,0.343,0.344,0.3454,0.3446,0.3397,0.3429,0.3428,0.3428,0.3427,0.3427,0.3827,0.382,0.3789,0.3769,0.3747,0.3726,0.3716,0.3689,0.367,0.3641,0.362,0.3599,0.3568,0.3526,0.3507,0.3489,0.3478,0.3478,0.3478,0.3479,0.3483,0.3457,0.3484,0.3484,0.3483,0.3483,0.3483,0,0.3863,0.3842,0.3823,0.3792,0.3776,0.3754,0.3727,0.3715,0.3698,0.3672,0.3651,0.3626,0.3603,0.3569,0.3543,0.3536,0.3524,0.353,0.353,0.3526,0.3495,0.3497,0.3541,0.3541,0.3541,0.3541,0.3541,0.3541,0.388,0.3867,0.3848,0.3824,0.3803,0.3783,0.3769,0.375,0.3729,0.3702,0.3683,0.3662,0.3632,0.3604,0.3582,0.3572,0.3565,0.3575,0.3562,0.3533,0.3528,0.3523,0.3525,0.3574,0.3574,0.3594,0.3595,0.3595]}]]